Home > Weather > Timișoara > Past weeks

Flag for Romania Past Weather in Timișoara, Romania — Yesterday and Last 2 Weeks

Now
66 °F

Clear.


Feels Like: 66 °F
Forecast: 67 / 89 °F
Wind: 7 mph from Southeast

Location: Timisoara Airport

Current Time: Jul 26, 2016 at 3:43:35 AM

Latest Report: Jul 26, 2016 at 3:00 AM


Visibility: 10 mi

Pressure: 30.01 "Hg

Humidity: 100%

Dew Point: 66 °F

Location of TimișoaraLocation

Past Weather in Timișoara — Graph

°F

Timișoara Temperature Yesterday

Maximum temperature yesterday: 91 °F (at 5:00 PM)
Minimum temperature yesterday: 63 °F (at 5:00 AM)
Average temperature yesterday: 77 °F

High & Low Weather Summary for the Past Weeks

 TemperatureHumidityPressure
High93 °F (Jul 13, 2:30 PM)100% (Jul 11, 6:00 AM)30.09 "Hg (Jul 11, 6:00 AM)
Low54 °F (Jul 17, 4:00 AM)23% (Jul 24, 4:00 PM)29.68 "Hg (Jul 14, 9:00 AM)
Average72 °F72%29.96 "Hg
* Reported Jul 11 2:00 AM — Jul 26 2:30 AM, Timișoara, Weather by CustomWeather, © 2016

Note: Actual official high and low records may vary slightly from our data, if they occured in-between our weather recording intervals... More about our weather records

Advertising

Timișoara Weather History for the Previous 24 Hours

Scroll right to see more
 ConditionsComfort  
Time TempWeatherWind HumidityBarometerVisibility
2:30 AM
Tue, Jul 26
68 °FClear.5 mph88%29.98 "Hg10 mi
2:00 AM68 °FPassing clouds.5 mph94%29.98 "HgN/A
1:30 AM70 °FClear.7 mph88%29.98 "Hg10 mi
1:00 AM70 °FClear.7 mph83%30.01 "Hg10 mi
12:30 AM72 °FClear.5 mph83%29.98 "Hg10 mi
12:00 AM72 °FPassing clouds.8 mph88%30.01 "HgN/A
11:30 PM
Mon, Jul 25
70 °FClear.9 mph88%30.01 "Hg10 mi
11:00 PM72 °FClear.8 mph78%29.98 "Hg10 mi
10:30 PM73 °FPassing clouds.6 mph74%29.98 "HgN/A
10:00 PM73 °FPassing clouds.7 mph74%29.98 "HgN/A
9:30 PM75 °FPassing clouds.12 mph69%29.98 "HgN/A
9:00 PM77 °FPassing clouds.2 mph61%29.95 "HgN/A
8:30 PM79 °FPassing clouds.2 mph65%29.92 "HgN/A
8:00 PM81 °FScattered clouds.2 mph58%29.92 "HgN/A
7:30 PM79 °FScattered clouds.12 mph65%29.95 "HgN/A
7:00 PM91 °FThunderstorms. Scattered clouds.1 mph32%29.95 "HgN/A
6:30 PM90 °FThunderstorms. Passing clouds.2 mph36%29.95 "HgN/A
6:00 PM90 °FThunderstorms. Passing clouds.6 mph36%29.92 "HgN/A
5:30 PM91 °FThundershowers. Passing clouds.3 mph34%29.92 "HgN/A
5:00 PM91 °FThundershowers. Passing clouds.3 mph30%29.92 "HgN/A
4:30 PM90 °FPassing clouds.3 mph36%29.92 "HgN/A
4:00 PM90 °FPassing clouds.2 mph36%29.92 "HgN/A
3:30 PM90 °FPassing clouds.6 mph41%29.92 "HgN/A
3:00 PM90 °FPassing clouds.6 mph38%29.95 "HgN/A
2:30 PM88 °FPassing clouds.5 mph40%29.95 "HgN/A
2:00 PM88 °FPassing clouds.5 mph49%29.95 "HgN/A
1:30 PM88 °FPassing clouds.3 mph40%29.95 "HgN/A
1:00 PM86 °FPassing clouds.3 mph40%29.95 "HgN/A
12:30 PM86 °FPassing clouds.3 mph43%29.95 "HgN/A
12:00 PM84 °FSunny.2 mph48%29.95 "Hg10 mi
11:30 AM82 °FPassing clouds.5 mph62%29.95 "HgN/A
11:00 AM81 °FPassing clouds.5 mph66%29.98 "HgN/A
10:30 AM79 °FPassing clouds.7 mph65%29.95 "HgN/A
10:00 AM77 °FPassing clouds.6 mph74%29.95 "HgN/A
9:30 AM77 °FSunny.8 mph74%29.98 "Hg10 mi
9:00 AM75 °FPassing clouds.6 mph74%29.98 "HgN/A
8:30 AM73 °FPassing clouds.5 mph78%29.98 "HgN/A
8:00 AM72 °FSunny.2 mph83%29.98 "Hg10 mi
7:30 AM66 °FSunny.3 mph94%29.98 "Hg10 mi
7:00 AM64 °FClear.1 mph94%29.98 "Hg10 mi
6:30 AM63 °FClear.5 mph94%29.98 "Hg10 mi
6:00 AM63 °FClear.2 mph100%29.98 "Hg10 mi
5:30 AM63 °FClear.7 mph100%29.95 "Hg10 mi
5:00 AM63 °FClear.5 mph94%29.98 "Hg10 mi
4:30 AM64 °FClear.3 mph94%29.98 "Hg10 mi
4:00 AM64 °FClear.6 mph94%29.98 "Hg10 mi
3:30 AM66 °FClear.5 mph88%29.98 "Hg10 mi
3:00 AM68 °FClear.2 mph83%29.98 "Hg10 mi
Weather by CustomWeather, © 2016

See weather overviewHow to use our weather pages